Lapse_Rate
6.2 6.2 6.3 6.3 6.5 6.7 7.1 6.7 6.3 6.0 5.9 6.0 5.7 5.6 5.4 5.6 5.3 5.8 5.8 5.9 5.8 5.7 5.5 5.6 5.6 5.7 5.6 5.4 5.5 5.4 5.4 5.6 5.9 6.1 6.0 5.9 5.9 5.8 5.8 5.7 5.6 5.7 5.8 5.8 5.9 5.9 6.1 6.0 5.9
6.3 6.3 6.3 6.2 6.5 7.2 7.5 6.4 6.3 6.0 6.2 6.1 5.8 5.7 5.4 5.2 5.4 5.5 5.8 5.7 5.8 5.7 5.6 5.7 5.8 5.9 5.7 5.6 5.5 5.4 5.5 5.6 5.9 6.0 6.0 5.9 5.8 5.8 5.8 5.7 5.6 5.8 5.8 5.9 6.0 5.9 6.0 5.9 5.9
6.2 6.2 6.1 6.1 6.4 7.0 6.9 6.3 6.3 6.3 6.2 6.1 5.8 5.7 5.6 5.5 5.4 5.5 5.7 5.5 5.8 5.6 5.6 5.5 5.7 5.7 5.7 5.5 5.4 5.5 5.5 5.6 5.9 6.0 5.8 5.9 5.9 5.9 5.8 5.8 5.8 5.9 5.8 5.7 5.8 5.9 5.8 5.9 5.9
6.3 6.1 6.0 6.2 6.8 6.3 6.1 6.3 6.1 6.3 6.1 6.0 5.8 5.3 5.8 5.6 5.4 5.4 5.5 5.4 5.7 5.7 5.5 5.4 5.7 5.6 5.4 5.6 5.4 5.6 5.6 5.8 5.9 5.8 5.8 5.8 5.8 5.8 5.8 5.7 5.9 5.7 5.6 5.7 5.7 5.8 5.8 5.9 5.8
6.2 6.1 6.0 6.1 6.4 6.2 6.3 6.1 6.2 6.2 5.9 5.8 5.9 5.6 5.8 5.7 5.5 5.5 5.4 5.4 5.4 5.7 5.6 5.5 5.5 5.7 5.8 6.1 6.1 6.0 5.9 5.9 5.9 5.9 5.6 5.7 5.7 5.6 5.5 5.5 5.6 5.6 5.6 5.7 5.7 5.8 5.8 5.8 5.8
5.7 5.9 6.1 6.3 6.6 6.3 6.3 6.3 6.2 6.0 5.9 6.0 5.8 5.9 5.8 5.8 5.7 5.6 5.5 5.4 5.3 5.4 5.7 5.6 5.6 5.6 5.9 6.1 6.3 6.2 6.0 6.1 6.0 5.9 5.6 5.5 5.6 5.5 5.4 5.4 5.5 5.6 5.6 5.7 5.7 5.7 5.8 5.9 5.9
5.6 6.0 6.4 6.7 6.7 6.5 6.0 6.6 6.5 6.3 6.3 6.1 5.9 5.6 5.9 5.9 5.8 5.6 5.5 5.5 5.3 5.2 5.4 5.6 5.6 5.5 5.9 6.1 6.2 6.2 6.1 6.0 5.8 5.7 5.6 5.5 5.5 5.5 5.5 5.6 5.5 5.4 5.4 5.5 5.6 5.7 5.9 5.9 5.9
5.8 6.0 6.2 6.6 6.9 6.5 6.1 6.5 6.5 6.5 6.6 6.4 6.1 5.4 5.6 5.9 5.9 5.7 5.5 5.5 5.3 5.1 5.3 5.5 5.6 5.5 5.5 5.8 5.9 6.0 5.9 5.8 5.5 5.7 5.7 5.6 5.6 5.5 5.5 5.4 5.5 5.6 5.6 5.6 5.5 5.6 5.7 5.8 5.7
5.9 5.6 6.1 6.7 6.7 6.7 6.3 6.5 6.4 6.3 6.5 6.5 6.3 5.9 5.9 5.9 5.9 5.9 5.6 5.4 5.5 5.3 5.2 5.4 5.4 5.7 5.5 5.6 5.6 5.8 5.7 5.7 5.6 5.4 5.5 5.6 5.7 5.6 5.5 5.3 5.2 5.1 5.2 5.5 5.5 5.5 5.6 5.6 5.7
5.7 5.6 6.0 6.3 6.5 6.6 6.4 6.5 6.4 6.3 6.3 7.0 6.6 6.2 5.9 6.0 5.8 5.8 5.8 5.5 5.4 5.4 5.1 5.2 5.2 5.4 5.6 5.5 5.5 5.8 5.6 5.6 5.6 5.8 5.9 6.0 5.8 5.6 5.4 5.5 5.5 5.5 5.5 5.5 5.5 5.6 5.8 6.0 6.1
5.9 5.3 6.3 6.3 6.0 6.0 6.0 6.0 6.4 6.3 6.0 6.5 5.9 5.8 6.2 6.3 5.8 5.7 5.8 5.6 5.4 5.3 5.2 5.0 5.1 5.2 5.3 5.4 5.5 5.6 5.6 5.6 5.7 5.7 5.6 5.7 5.7 5.6 5.5 5.5 5.5 5.5 5.4 5.5 5.7 5.9 6.0 6.1 6.2
5.5 5.7 6.0 6.1 5.7 5.7 5.8 5.5 5.6 5.8 6.3 5.6 6.2 6.7 6.3 6.2 5.8 5.6 5.8 5.7 5.5 5.5 5.4 4.9 4.9 5.1 5.1 5.2 5.3 5.4 5.5 5.6 5.5 5.6 5.6 5.6 5.6 5.5 5.5 5.5 5.6 5.7 5.6 5.7 5.8 6.0 6.1 6.1 6.2
5.4 5.8 5.7 6.0 5.8 6.0 5.6 5.7 5.5 5.7 5.5 5.8 5.9 6.2 6.1 6.0 6.0 5.7 5.7 5.8 5.8 5.6 5.5 5.2 5.0 5.0 5.1 5.1 5.1 5.2 5.2 5.3 5.5 5.5 5.4 5.5 5.6 5.5 5.5 5.6 5.7 5.9 5.9 6.0 6.0 6.1 6.1 6.2 6.2
5.5 5.6 5.5 5.6 5.9 6.0 5.6 5.6 4.9 5.8 6.0 5.7 6.0 6.0 5.9 6.0 5.9 5.9 5.8 5.6 5.8 5.5 5.4 5.3 5.1 5.0 5.0 5.2 5.1 5.1 5.1 5.2 5.5 5.5 5.5 5.6 5.7 5.7 5.7 5.7 5.8 5.8 5.8 5.9 6.0 6.2 6.3 6.3 6.3
6.0 5.8 5.9 5.6 6.0 5.7 5.7 5.6 5.2 5.5 6.1 5.6 5.6 5.9 5.7 5.9 5.8 6.0 5.6 5.5 5.6 5.6 5.4 5.5 5.2 5.0 5.0 5.1 5.2 5.0 5.1 5.2 5.3 5.4 5.6 5.7 5.7 5.7 5.8 5.8 5.8 5.9 5.8 5.9 5.9 6.0 6.1 6.1 6.2
5.2 5.2 5.3 5.4 5.4 5.5 5.9 5.3 5.5 5.4 6.0 5.6 6.0 5.9 5.8 5.8 5.8 5.9 5.8 5.6 5.5 5.5 5.6 5.3 5.3 5.2 5.1 5.1 5.1 5.2 5.1 5.2 5.5 5.5 5.6 5.8 5.8 5.8 5.8 5.8 5.9 5.9 6.0 6.0 6.0 6.0 6.0 6.1 6.1
5.3 4.8 5.0 5.5 6.0 5.3 5.3 4.8 5.5 5.6 5.5 6.2 6.4 6.1 5.3 5.2 5.5 5.7 6.0 5.7 5.5 5.5 5.5 5.6 5.5 5.4 5.3 5.1 5.2 5.3 5.3 5.4 5.6 5.8 5.8 5.9 6.0 6.0 6.0 5.9 5.9 6.0 6.0 6.0 5.9 6.0 6.1 6.0 6.0
5.0 4.9 5.1 5.4 6.2 5.6 5.4 4.7 5.4 5.6 5.9 6.0 6.2 6.1 5.4 5.1 5.1 6.0 6.0 5.7 5.5 5.3 5.3 5.4 5.5 5.4 5.5 5.4 5.2 5.3 5.5 5.7 5.8 5.9 6.0 6.1 6.1 6.0 6.0 6.0 6.0 6.0 6.0 5.9 5.9 6.1 6.0 5.9 5.8
5.4 5.4 5.6 6.0 6.2 6.1 5.2 5.4 5.3 5.8 5.2 5.9 6.1 6.6 6.3 5.3 5.7 6.2 5.6 5.6 5.4 5.4 5.3 5.4 5.5 5.5 5.4 5.7 5.9 5.9 6.1 5.9 5.9 6.0 6.0 6.0 6.0 5.8 6.0 6.2 6.1 6.0 5.9 5.8 5.9 6.0 5.9 5.7 5.8
5.6 5.4 5.1 5.4 6.1 5.7 5.7 5.6 5.8 5.7 4.9 5.9 6.3 6.4 6.9 6.5 6.3 6.1 6.0 6.1 5.8 5.9 5.6 5.2 5.5 5.5 5.7 5.8 5.9 6.0 5.8 5.6 5.4 5.6 5.8 6.0 5.9 5.9 6.1 6.2 6.0 5.8 5.9 5.9 5.9 5.9 5.7 5.8 6.0
5.5 5.2 5.1 5.0 6.0 5.7 5.8 5.9 6.1 7.1 6.1 6.5 6.5 6.4 6.6 7.1 7.0 6.5 6.4 6.3 6.3 5.8 5.9 5.9 5.8 5.5 5.6 6.0 5.7 5.7 5.6 5.6 5.7 5.9 6.0 6.0 5.8 5.7 5.6 5.6 5.8 5.9 6.0 5.9 5.8 5.8 5.7 5.8 6.0
5.4 5.5 4.9 5.6 5.8 5.8 6.6 5.6 6.5 6.9 6.8 5.6 6.1 6.5 6.6 7.1 7.3 6.9 6.6 6.5 6.4 6.3 6.5 6.1 5.9 5.9 5.8 5.7 6.0 6.1 6.0 5.9 6.0 5.8 5.6 5.6 5.6 5.7 5.7 5.8 5.7 5.8 5.9 5.9 5.8 5.7 5.8 6.0 6.1
5.4 5.8 5.3 5.8 5.8 5.6 5.8 5.5 4.8 6.5 6.2 5.5 5.8 7.1 7.0 7.1 7.5 7.3 7.0 6.7 6.6 6.6 6.4 6.3 6.3 6.0 6.0 5.8 5.8 5.9 6.1 6.1 5.9 5.7 5.7 5.7 5.8 5.7 5.7 5.7 5.6 5.7 5.9 6.0 5.8 6.0 6.0 6.0 5.8
6.0 6.0 6.0 5.7 5.5 5.6 5.2 5.8 5.7 6.1 7.0 6.4 6.3 7.0 7.4 7.4 7.9 7.5 7.3 6.9 6.6 6.6 6.6 6.4 6.2 6.1 6.0 5.8 6.0 6.0 6.4 6.4 6.0 5.9 6.0 6.1 6.0 5.8 5.8 5.8 5.8 5.9 6.0 6.1 6.1 6.0 6.0 5.8 5.7
6.2 5.9 6.0 5.9 5.8 5.9 6.6 6.6 5.4 6.2 6.4 6.3 6.7 6.9 7.5 7.1 7.5 7.6 7.5 7.3 7.3 7.2 7.3 7.0 6.8 6.5 6.4 6.2 6.2 6.4 6.6 6.8 6.6 6.5 6.2 6.3 6.2 6.0 6.2 6.0 6.0 6.1 6.1 5.9 6.1 6.0 5.9 6.1 6.0
6.4 5.8 6.2 6.6 6.5 6.8 7.6 6.7 6.1 6.3 6.7 6.8 7.4 7.4 7.5 7.6 7.4 7.4 7.5 7.5 7.4 7.5 7.3 7.2 6.9 6.8 6.6 6.4 6.5 6.7 6.7 6.6 6.7 6.6 6.7 6.4 6.4 6.4 6.3 6.2 6.3 6.1 6.2 6.1 6.0 6.2 6.1 6.0 5.9
6.5 6.2 6.5 6.1 6.4 5.7 6.5 6.8 6.2 6.4 6.9 7.1 7.3 7.5 7.4 7.6 7.5 7.2 7.4 7.1 7.0 7.3 7.1 6.9 6.9 6.7 6.6 6.8 6.8 6.7 6.7 6.4 6.5 6.8 6.6 6.6 6.5 6.4 6.5 6.2 6.2 6.3 6.2 6.2 6.1 6.4 6.3 6.0 6.0
6.6 6.7 6.7 6.2 6.7 6.8 7.5 7.2 7.0 6.9 6.5 6.8 7.1 7.3 7.7 7.7 7.9 7.8 7.5 7.2 7.0 7.1 7.0 6.7 6.6 6.5 6.7 6.8 7.0 7.0 6.9 6.5 6.3 6.4 6.5 6.3 6.8 6.5 6.3 6.2 6.3 6.3 6.1 6.2 6.2 6.4 6.5 6.4 6.4
6.5 6.3 6.6 6.0 6.5 7.2 7.6 7.3 7.0 6.4 7.0 6.9 7.0 7.2 6.9 7.1 7.4 7.3 7.2 7.1 7.0 7.1 7.0 6.9 7.0 6.8 7.1 7.3 7.7 7.3 7.0 6.7 6.6 6.4 6.3 6.3 6.8 6.5 6.4 6.3 6.2 6.0 6.0 6.3 6.4 6.5 6.5 6.5 6.5
7.1 6.8 6.7 7.0 6.8 6.8 7.4 6.8 6.4 7.1 7.1 7.2 6.9 6.6 6.4 6.6 6.8 7.2 7.4 7.2 7.2 6.9 7.2 7.5 7.3 7.4 7.6 7.7 7.3 7.3 7.0 6.8 6.6 6.5 6.2 6.1 6.5 6.4 6.5 6.3 6.0 6.1 6.2 6.4 6.5 6.5 6.5 6.5 6.5
Wind_Speed
22 16 6 5 5 3 3 3 1 5 4 3 4 2 7 5 9 4 7 5 13 12 16 13 15 15 15 16 15 14 12 12 11 11 12 12 14 13 15 14 17 19 16 16 17 18 18 17 17
17 14 3 4 6 5 2 3 2 4 6 5 4 2 2 5 5 6 9 8 13 14 15 15 15 16 16 16 15 13 14 12 10 10 12 12 12 11 15 13 16 17 16 16 17 17 17 17 17
11 11 5 6 4 7 6 4 2 5 7 5 3 2 3 3 4 9 9 13 14 12 14 17 15 15 16 14 14 15 14 13 10 11 11 11 12 11 15 12 14 16 14 15 16 16 16 16 14
5 2 2 7 11 3 5 5 3 6 3 2 1 3 4 4 3 6 11 14 12 11 14 16 14 14 14 14 14 16 16 14 12 12 11 11 10 10 13 11 14 17 14 15 15 15 15 13 12
3 3 6 11 10 4 2 3 7 7 4 5 4 1 1 5 5 8 13 11 12 9 13 15 12 12 13 13 14 15 15 16 15 12 12 12 10 9 12 10 14 18 13 14 14 13 13 12 11
6 4 6 12 16 4 3 4 4 8 1 3 3 2 3 8 8 9 12 11 14 10 12 15 12 11 11 13 14 14 15 16 19 15 12 12 9 9 11 9 12 15 13 13 12 12 11 10 9
12 7 13 14 14 9 3 1 5 8 6 4 3 3 4 8 9 10 10 12 12 13 12 13 14 12 11 13 14 15 16 16 17 15 14 12 10 8 9 10 9 11 12 12 11 10 10 9 9
6 10 16 13 13 15 4 3 1 7 6 4 2 3 2 11 12 10 11 11 10 10 12 13 13 14 14 13 13 13 20 20 18 15 13 12 10 9 7 8 9 11 10 10 9 9 9 8 8
3 9 13 18 15 14 8 5 4 2 6 2 4 4 3 15 13 11 11 11 11 9 10 13 15 15 14 13 13 14 20 18 18 16 15 14 11 10 9 8 10 12 9 7 6 7 8 8 7
8 11 18 15 14 12 11 10 7 6 9 8 8 5 4 13 13 15 14 14 14 13 11 11 13 14 14 13 14 16 15 14 13 12 14 11 10 10 7 9 9 10 9 8 7 7 8 8 6
8 16 15 16 13 14 16 14 6 7 10 9 11 12 11 12 13 15 15 14 14 13 10 12 12 14 14 12 15 14 14 13 11 12 13 9 10 9 10 10 10 9 10 10 9 8 9 3 2
11 14 17 14 11 11 16 18 22 14 16 3 5 1 12 14 16 17 16 16 16 15 14 13 15 14 15 14 14 14 13 13 12 14 14 13 11 12 11 11 12 11 11 8 8 6 4 5 3
13 18 13 14 11 11 10 13 16 18 16 14 6 6 11 14 16 16 16 15 14 16 16 15 14 13 15 14 14 13 13 13 15 14 15 15 13 10 12 11 11 11 11 10 7 6 7 5 4
6 9 18 14 14 13 12 18 15 10 13 16 11 12 12 15 16 15 16 17 17 16 16 15 15 16 17 13 15 12 13 14 14 14 15 17 14 12 12 11 11 11 11 10 9 8 7 7 6
8 12 13 17 15 12 10 21 23 16 18 15 18 15 13 14 15 18 17 18 17 16 15 16 16 18 14 14 15 13 12 13 12 12 15 17 16 15 13 10 10 11 11 10 9 7 7 7 7
6 10 16 18 17 15 9 24 16 17 22 24 22 19 15 15 16 16 17 16 17 17 18 17 13 15 15 13 14 14 14 14 13 13 14 17 18 16 13 9 9 11 11 11 10 8 6 6 6
8 11 18 20 18 13 16 19 16 19 19 18 20 22 22 21 18 16 18 19 19 19 19 19 18 17 17 14 14 14 15 14 15 15 15 17 18 18 14 11 10 12 10 10 8 6 6 6 6
7 10 16 17 13 14 20 23 20 16 15 16 18 20 21 23 25 21 20 19 19 19 19 18 16 18 17 12 10 10 9 12 15 15 15 18 17 18 16 12 12 12 8 7 7 7 6 6 5
15 12 20 19 16 3 19 22 23 21 22 22 20 20 19 20 20 19 18 19 18 19 19 20 20 18 13 12 11 11 11 10 10 13 17 18 18 19 17 12 12 13 8 8 9 7 8 6 5
18 15 17 18 14 10 19 24 23 23 21 23 21 23 23 22 21 18 19 18 19 20 19 19 20 19 16 12 11 11 10 10 9 13 15 19 19 19 17 14 9 12 8 10 9 9 7 6 6
20 14 13 17 11 17 17 25 25 29 26 25 23 21 23 22 22 22 20 20 18 20 21 21 21 20 19 17 11 10 9 9 10 10 10 14 20 19 19 18 13 10 9 8 10 10 10 7 6
21 19 18 16 11 11 10 12 20 24 21 22 21 20 22 22 21 20 20 20 21 20 20 21 21 22 20 20 15 18 13 13 12 11 10 11 21 20 21 19 18 14 10 10 9 9 10 9 8
22 14 11 10 14 10 16 7 16 19 24 22 20 19 20 20 18 20 21 20 21 20 19 21 23 22 21 20 19 14 15 13 10 10 13 14 13 21 22 22 19 12 10 12 12 11 11 9 9
4 5 7 10 12 11 23 20 14 17 24 23 21 18 18 15 17 17 18 18 19 18 19 19 21 22 21 20 23 22 21 17 13 13 12 11 11 11 17 21 18 18 12 13 12 12 13 11 10
8 7 4 4 5 7 17 17 23 15 17 19 17 11 13 13 15 14 15 16 17 18 18 18 21 22 22 23 23 23 22 20 19 17 13 13 11 11 14 17 15 13 14 14 12 12 13 12 12
15 10 4 8 4 8 11 9 13 18 17 22 20 13 14 10 11 10 9 12 15 15 17 19 20 21 21 22 23 22 22 14 14 16 13 11 11 12 14 15 15 16 16 14 13 11 10 12 11
11 11 21 11 18 6 7 17 16 15 14 11 13 13 15 14 13 12 11 12 14 13 16 19 20 20 21 23 20 21 20 21 17 19 15 13 14 11 14 15 15 15 15 15 14 11 12 12 12
26 15 8 7 6 8 12 21 14 9 14 12 14 15 13 12 9 9 10 12 13 13 14 17 19 20 20 19 19 18 19 20 18 16 18 18 15 15 13 14 15 14 14 14 14 12 11 11 9
18 21 20 12 12 14 15 15 16 19 19 20 17 14 7 6 7 8 8 7 9 10 12 14 16 18 18 19 18 18 18 19 18 17 18 17 15 15 16 15 14 14 14 14 14 15 11 12 11
19 23 23 5 7 9 18 21 13 4 6 7 10 1 4 4 5 6 8 7 6 7 9 11 12 15 16 16 17 18 18 18 18 19 19 16 16 16 16 15 14 14 14 14 16 15 11 12 12
Wind_Direction
325 333 309 260 269 237 266 106 9 112 139 74 102 304 3 3 359 22 150 128 128 138 131 140 131 131 125 121 121 118 119 120 118 114 108 110 112 111 103 93 101 101 95 95 95 95 95 90 88
324 318 249 281 267 268 89 78 196 116 82 134 142 205 246 69 67 105 145 161 143 141 147 145 136 132 132 135 132 124 116 116 116 119 108 115 117 114 102 96 96 96 97 101 100 97 97 93 85
309 294 337 315 280 269 334 18 24 106 132 162 177 288 6 62 78 144 108 158 145 147 135 129 142 141 142 145 136 126 122 117 116 113 113 116 117 114 109 107 107 103 104 107 103 101 97 92 89
317 230 257 265 273 325 330 0 331 153 162 212 291 204 129 42 119 148 152 159 150 144 139 139 145 147 149 152 141 131 128 125 117 113 114 108 111 116 107 106 113 109 111 109 107 102 97 94 90
259 235 228 248 271 276 318 324 294 210 146 164 201 84 82 117 110 132 155 164 147 151 148 152 152 150 151 154 151 143 139 130 123 119 113 114 118 123 116 107 115 107 116 110 108 104 100 94 89
250 239 225 229 242 214 297 308 231 245 137 100 232 255 88 125 150 143 155 173 159 164 151 146 157 154 158 156 155 150 144 139 130 127 125 123 128 128 121 115 106 117 119 117 111 107 102 96 87
259 221 238 245 241 248 273 215 214 216 219 203 345 259 83 163 143 157 168 185 166 153 166 159 168 160 158 160 157 158 148 141 130 134 133 131 132 126 123 124 118 114 125 119 117 115 111 102 88
284 260 251 243 239 239 133 189 266 254 221 79 264 263 137 160 141 167 181 185 173 164 175 172 158 170 164 161 163 155 151 149 142 139 134 132 131 113 100 120 117 112 112 126 135 128 114 104 82
278 253 246 243 232 233 138 218 175 32 255 193 188 302 62 128 146 170 183 192 185 180 185 180 168 183 173 172 167 161 159 153 146 146 142 145 148 154 153 121 131 128 128 130 131 136 132 123 101
234 239 250 257 250 252 217 230 198 197 217 224 209 180 175 143 167 174 186 195 198 191 193 188 185 186 179 183 161 173 168 164 165 162 162 179 156 134 143 136 141 142 147 144 142 157 167 191 165
239 242 255 259 271 278 269 217 222 236 246 244 246 193 181 167 185 193 195 200 204 204 197 198 191 192 187 185 181 176 175 181 169 166 177 177 165 159 173 165 175 172 175 176 174 171 202 196 199
253 247 256 269 287 290 269 266 258 239 254 304 288 48 180 195 199 199 200 205 204 206 201 199 196 194 190 188 193 187 188 184 174 191 188 180 182 181 188 181 187 190 192 199 197 191 187 198 202
238 261 251 265 265 266 271 263 264 265 258 246 236 170 207 213 214 209 205 208 217 210 206 198 199 194 191 194 198 195 196 193 195 191 192 195 195 190 191 192 193 198 197 199 201 198 198 203 205
324 286 270 247 264 252 265 262 257 258 256 252 235 220 214 219 217 213 209 213 206 219 208 202 202 198 196 197 198 198 200 197 208 201 192 203 199 192 196 195 200 203 201 205 207 204 206 207 203
294 275 263 248 247 262 273 262 250 256 262 258 253 246 233 222 217 217 214 216 207 217 211 207 202 201 202 199 203 203 201 203 206 205 203 204 206 200 198 200 201 204 200 208 212 213 222 221 211
302 288 256 243 237 236 237 260 259 242 242 252 247 251 233 227 221 218 216 216 214 213 211 204 202 202 205 202 200 204 204 203 203 205 202 205 210 210 204 204 207 205 198 204 210 212 214 223 218
220 247 246 265 270 229 216 268 260 249 253 255 254 248 248 235 216 224 219 213 209 213 212 205 203 201 205 207 204 206 205 203 206 206 204 203 206 209 207 210 210 204 205 210 214 215 220 216 228
203 226 242 248 244 219 248 252 261 251 239 257 257 256 249 246 238 222 218 215 209 209 213 208 202 198 205 200 207 207 205 209 212 208 206 208 206 206 209 209 208 203 207 211 213 218 212 235 227
230 254 257 257 243 293 263 259 260 253 253 252 251 255 255 253 243 238 224 215 213 205 208 209 205 199 201 198 198 204 207 206 211 210 210 209 210 206 207 213 211 203 210 215 214 215 224 213 239
241 248 259 267 259 208 253 264 267 258 254 253 251 249 248 249 248 246 238 210 207 207 205 205 207 202 202 201 201 205 205 207 212 208 209 211 211 211 206 210 213 210 212 220 219 215 217 227 181
236 233 243 246 245 242 271 274 261 256 253 251 246 243 250 245 244 240 231 224 213 210 205 207 204 206 205 203 201 203 212 212 208 210 209 210 209 209 210 211 214 213 214 218 218 215 214 221 203
245 235 232 241 261 244 204 276 268 257 251 231 235 237 242 243 239 239 236 223 215 215 212 205 205 205 204 199 202 200 201 204 208 205 207 203 206 209 210 211 214 218 215 220 221 214 216 215 226
250 248 222 243 242 259 239 261 261 255 256 250 240 229 238 242 239 238 234 227 219 211 212 208 207 207 205 201 202 204 206 215 204 209 204 204 201 207 210 210 213 213 216 220 217 215 216 221 222
226 222 238 250 247 251 238 225 257 241 252 253 247 236 243 240 236 236 237 235 229 212 207 210 211 209 206 203 203 208 207 208 207 206 206 203 203 203 209 210 212 213 214 217 215 219 217 218 226
196 156 221 215 212 235 232 227 244 270 261 267 264 240 242 242 244 236 232 237 237 225 208 209 208 210 208 206 205 207 212 210 212 210 210 203 202 205 206 206 210 212 215 215 216 215 220 219 221
206 208 231 215 199 249 209 239 232 234 252 253 259 256 258 250 236 247 237 239 234 229 223 210 213 215 210 208 209 208 212 213 215 215 210 213 209 211 206 204 207 211 211 214 215 219 220 221 224
233 213 235 267 276 262 227 259 257 263 262 250 253 251 251 254 246 252 252 241 243 228 226 217 216 217 214 212 210 210 209 213 213 215 214 213 213 215 211 206 205 207 211 213 214 217 220 225 230
236 238 220 200 214 220 228 250 259 262 258 258 244 249 248 255 247 246 247 244 238 233 221 223 222 219 218 217 212 212 212 213 214 215 214 216 215 211 208 205 206 206 212 211 212 218 219 218 224
218 233 236 272 240 257 264 256 264 271 274 266 251 239 264 262 276 279 273 264 256 243 228 216 219 220 220 216 213 214 213 213 212 215 216 216 214 209 210 206 205 206 209 209 211 219 213 214 220
252 226 224 227 212 249 251 262 270 293 320 339 330 34 221 266 295 301 281 275 257 248 246 239 227 218 218 219 215 214 214 212 212 215 215 211 212 209 209 204 205 207 209 208 211 215 206 211 215